TimeMST,TemperatureF,Dew PointF,Humidity,Sea Level PressureIn,VisibilityMPH,Wind Direction,Wind SpeedMPH,Gust SpeedMPH,PrecipitationIn,Events,Conditions,WindDirDegrees,DateUTC
12:15 AM,11.5,2.7,68,29.91,10.0,Calm,Calm,-,N/A,,Clear,0,2013-02-26 07:15:00
12:35 AM,10.9,6.6,83,29.91,10.0,Calm,Calm,-,N/A,,Clear,0,2013-02-26 07:35:00
12:55 AM,10.0,5.7,83,29.90,10.0,Calm,Calm,-,N/A,,Clear,0,2013-02-26 07:55:00
1:15 AM,10.9,6.4,82,29.89,10.0,Calm,Calm,-,N/A,,Clear,0,2013-02-26 08:15:00
1:35 AM,8.4,4.3,83,29.88,10.0,Calm,Calm,-,N/A,,Clear,0,2013-02-26 08:35:00
1:55 AM,12.0,7.2,81,29.88,10.0,Calm,Calm,-,N/A,,Clear,0,2013-02-26 08:55:00
2:15 AM,8.6,3.9,81,29.88,10.0,Calm,Calm,-,N/A,,Clear,0,2013-02-26 09:15:00
2:35 AM,13.6,7.5,77,29.87,10.0,Calm,Calm,-,N/A,,Clear,0,2013-02-26 09:35:00
2:55 AM,7.0,2.8,83,29.86,10.0,NNE,3.5,-,N/A,,Clear,30,2013-02-26 09:55:00
3:15 AM,7.0,4.6,90,29.86,10.0,Calm,Calm,-,N/A,,Clear,0,2013-02-26 10:15:00
3:35 AM,8.6,6.6,92,29.85,10.0,Calm,Calm,-,N/A,,Clear,0,2013-02-26 10:35:00
3:55 AM,4.5,0.9,85,29.85,10.0,WNW,3.5,-,N/A,,Clear,300,2013-02-26 10:55:00
4:15 AM,8.4,5.2,87,29.85,10.0,Calm,Calm,-,N/A,,Clear,0,2013-02-26 11:15:00
4:35 AM,4.5,1.0,86,29.84,10.0,Calm,Calm,-,N/A,,Clear,0,2013-02-26 11:35:00
4:55 AM,6.8,4.5,90,29.83,10.0,Calm,Calm,-,N/A,,Clear,0,2013-02-26 11:55:00
5:15 AM,5.7,2.8,88,29.83,10.0,Calm,Calm,-,N/A,,Clear,0,2013-02-26 12:15:00
5:35 AM,5.0,1.8,86,29.83,10.0,Calm,Calm,-,N/A,,Clear,0,2013-02-26 12:35:00
5:55 AM,3.6,0.9,89,29.83,10.0,Calm,Calm,-,N/A,,Clear,0,2013-02-26 12:55:00
6:15 AM,5.2,2.5,89,29.83,10.0,Calm,Calm,-,N/A,,Clear,0,2013-02-26 13:15:00
6:35 AM,3.7,0.1,85,29.82,10.0,Calm,Calm,-,N/A,,Clear,0,2013-02-26 13:35:00
6:55 AM,5.9,3.4,89,29.81,10.0,Calm,Calm,-,N/A,,Clear,0,2013-02-26 13:55:00
7:15 AM,4.6,0.7,84,29.81,10.0,Calm,Calm,-,N/A,,Clear,0,2013-02-26 14:15:00
7:35 AM,8.6,6.1,89,29.80,10.0,Calm,Calm,-,N/A,,Clear,0,2013-02-26 14:35:00
7:55 AM,5.7,1.4,82,29.81,10.0,Calm,Calm,-,N/A,,Clear,0,2013-02-26 14:55:00
8:15 AM,11.3,9.1,91,29.80,10.0,Calm,Calm,-,N/A,,Clear,0,2013-02-26 15:15:00
8:35 AM,13.8,11.3,90,29.80,10.0,Calm,Calm,-,N/A,,Clear,0,2013-02-26 15:35:00
8:55 AM,16.7,10.8,77,29.80,10.0,Calm,Calm,-,N/A,,Clear,0,2013-02-26 15:55:00
9:15 AM,18.9,9.3,66,29.80,10.0,Calm,Calm,-,N/A,,Clear,0,2013-02-26 16:15:00
9:35 AM,21.6,8.6,57,29.80,10.0,WSW,5.8,-,N/A,,Scattered Clouds,250,2013-02-26 16:35:00
9:55 AM,24.6,8.2,50,29.80,10.0,Calm,Calm,-,N/A,,Scattered Clouds,0,2013-02-26 16:55:00
10:15 AM,24.4,8.4,51,29.80,10.0,South,5.8,-,N/A,,Clear,190,2013-02-26 17:15:00
10:35 AM,25.3,9.3,51,29.80,10.0,SSW,8.1,-,N/A,,Clear,200,2013-02-26 17:35:00
10:55 AM,27.1,10.6,50,29.79,10.0,SW,6.9,18.4,N/A,,Scattered Clouds,220,2013-02-26 17:55:00
11:15 AM,29.1,11.3,47,29.78,10.0,SW,12.7,17.3,N/A,,Scattered Clouds,220,2013-02-26 18:15:00
11:35 AM,29.8,10.4,44,29.78,10.0,SW,10.4,18.4,N/A,,Mostly Cloudy,220,2013-02-26 18:35:00
11:55 AM,29.7,10.6,45,29.77,10.0,SW,10.4,23.0,N/A,,Overcast,220,2013-02-26 18:55:00
12:15 PM,28.4,9.9,46,29.76,10.0,SW,9.2,-,N/A,,Overcast,230,2013-02-26 19:15:00
12:35 PM,23.9,15.1,69,29.78,3.0,NW,9.2,17.3,N/A,Snow,Light Snow,320,2013-02-26 19:35:00
12:55 PM,22.3,16.5,79,29.78,0.8,WNW,5.8,17.3,N/A,Snow,Light Snow,300,2013-02-26 19:55:00
1:15 PM,24.6,15.4,68,29.77,7.0,Calm,Calm,-,N/A,Snow,Light Snow,0,2013-02-26 20:15:00
1:35 PM,26.1,16.3,67,29.78,10.0,SW,9.2,-,N/A,,Overcast,230,2013-02-26 20:35:00
1:55 PM,26.4,14.2,60,29.78,10.0,Calm,Calm,-,N/A,,Overcast,0,2013-02-26 20:55:00
2:15 PM,28.6,12.9,52,29.78,10.0,Calm,Calm,-,N/A,,Overcast,0,2013-02-26 21:15:00
2:35 PM,28.6,10.9,48,29.79,10.0,SW,9.2,18.4,N/A,,Overcast,230,2013-02-26 21:35:00
2:55 PM,27.5,11.8,52,29.80,10.0,SSW,8.1,-,N/A,,Scattered Clouds,200,2013-02-26 21:55:00
3:15 PM,27.7,14.7,58,29.80,10.0,South,9.2,-,N/A,,Mostly Cloudy,190,2013-02-26 22:15:00
3:35 PM,28.0,12.0,51,29.81,10.0,South,8.1,-,N/A,,Overcast,190,2013-02-26 22:35:00
3:55 PM,27.5,14.0,57,29.82,10.0,ESE,6.9,-,N/A,,Overcast,120,2013-02-26 22:55:00
4:15 PM,26.2,15.6,64,29.83,10.0,East,4.6,-,N/A,,Overcast,100,2013-02-26 23:15:00
4:35 PM,25.0,15.6,68,29.84,10.0,ENE,6.9,-,N/A,,Overcast,70,2013-02-26 23:35:00
4:55 PM,25.5,15.1,65,29.85,10.0,ENE,4.6,-,N/A,,Overcast,60,2013-02-26 23:55:00
5:15 PM,25.0,16.0,69,29.86,10.0,NE,6.9,-,N/A,,Overcast,50,2013-02-27 00:15:00
5:35 PM,25.2,14.4,64,29.87,10.0,ENE,5.8,-,N/A,,Overcast,60,2013-02-27 00:35:00
5:55 PM,24.6,14.0,64,29.88,10.0,NE,5.8,-,N/A,,Overcast,50,2013-02-27 00:55:00
6:15 PM,23.9,13.5,64,29.89,10.0,ENE,3.5,-,N/A,,Mostly Cloudy,60,2013-02-27 01:15:00
6:35 PM,18.0,11.5,76,29.90,10.0,Calm,Calm,-,N/A,,Scattered Clouds,0,2013-02-27 01:35:00
6:55 PM,17.4,13.5,84,29.91,10.0,Calm,Calm,-,N/A,,Clear,0,2013-02-27 01:55:00
7:15 PM,17.6,12.4,80,29.92,10.0,Calm,Calm,-,N/A,,Clear,0,2013-02-27 02:15:00
7:35 PM,15.6,9.3,76,29.93,10.0,Calm,Calm,-,N/A,,Clear,0,2013-02-27 02:35:00
7:55 PM,18.3,12.2,77,29.94,10.0,Calm,Calm,-,N/A,,Clear,0,2013-02-27 02:55:00
8:15 PM,13.6,7.7,77,29.95,10.0,Calm,Calm,-,N/A,,Clear,0,2013-02-27 03:15:00
8:35 PM,11.7,8.2,86,29.96,10.0,Calm,Calm,-,N/A,,Clear,0,2013-02-27 03:35:00
8:55 PM,14.2,6.1,70,29.97,10.0,Calm,Calm,-,N/A,,Clear,0,2013-02-27 03:55:00
9:15 PM,11.8,5.9,77,29.97,10.0,Calm,Calm,-,N/A,,Clear,0,2013-02-27 04:15:00
9:35 PM,10.6,6.1,82,29.99,10.0,Calm,Calm,-,N/A,,Clear,0,2013-02-27 04:35:00
9:55 PM,9.7,4.3,79,30.00,10.0,Calm,Calm,-,N/A,,Clear,0,2013-02-27 04:55:00
10:15 PM,8.8,3.6,79,30.00,10.0,Calm,Calm,-,N/A,,Clear,0,2013-02-27 05:15:00
10:35 PM,6.4,1.2,79,30.01,10.0,Calm,Calm,-,N/A,,Clear,0,2013-02-27 05:35:00
10:55 PM,7.3,4.8,89,30.02,10.0,Calm,Calm,-,N/A,,Clear,0,2013-02-27 05:55:00
11:15 PM,4.5,0.1,82,30.02,10.0,Calm,Calm,-,N/A,,Clear,0,2013-02-27 06:15:00
11:35 PM,8.4,3.0,79,30.02,10.0,Calm,Calm,-,N/A,,Clear,0,2013-02-27 06:35:00
11:55 PM,6.8,3.6,87,30.03,10.0,Calm,Calm,-,N/A,,Clear,0,2013-02-27 06:55:00